{"data":{"norad_id":62904,"intl_designator":"2025-026C","name":"COSMOS 2583","alt_names":[],"object_type":"PAYLOAD","status":"ACTIVE","operator":null,"country":"CIS","launch_date":"2025-02-05","launch_site_code":"PLMSC","launch_vehicle":null,"mission":null,"orbit_class":"UNKNOWN","rcs_meters":null,"size_class":null,"mass_kg":null,"dimensions":null,"purposes":[],"wikipedia_slug":null,"has_3d_model":false,"image_url":null,"decayed_at":null,"tle_current":{"epoch":"2026-09-22T17:36:41.698080Z","epoch_age_seconds":122610,"freshness":"FRESH","line1":"1 62904U 25026C   26265.73381595  .00001232  00000+0  10994-3 0  9991","line2":"2 62904  81.9983 334.9522 0011536  93.6386 266.6153 14.95178448 88770","mean_motion":14.95178448,"eccentricity":0.0011536,"inclination_deg":81.9983,"raan_deg":334.9522,"arg_perigee_deg":93.6386,"mean_anomaly_deg":266.6153,"bstar":0.00010994,"rev_number":8877,"period_min":96.30957441409,"perigee_km":573.78991515556,"apogee_km":589.84792545489,"semimajor_km":6959.9559203052,"source":"CELESTRAK","updated_at":"2026-09-23T09:00:21.691812Z"}}}